CW2433 Weather Reports


Display with metric or nautical units.
time (UTC)temp
F
wind
direction
speed
MPH
gust
MPH
rain 1hr
in
rain 24hr
in
rain mn
in
humidity
%
barometer
mb
20260903184009 91 125 4.0 12.0 0.00 0.00 0.00 62 1008.9
20260903183509 91 150 5.0 12.0 0.00 0.00 0.00 62 1008.9
20260903183009 91 191 4.0 12.0 0.00 0.00 0.00 62 1009.0
20260903181509 91 168 2.0 9.0 0.00 0.00 0.00 61 1009.2
20260903181009 91 211 2.0 12.0 0.00 0.00 0.00 62 1009.2
20260903180509 91 150 5.0 12.0 0.00 0.00 0.00 60 1009.2
20260903180009 91 177 2.0 12.0 0.00 0.00 0.00 61 1009.2
20260903175509 91 175 3.0 12.0 0.00 0.00 0.00 59 1009.3
20260903175009 91 167 3.0 9.0 0.00 0.00 0.00 61 1009.5
20260903174510 91 178 3.0 9.0 0.00 0.00 0.00 60 1009.4
20260903174009 90 168 3.0 10.0 0.00 0.00 0.00 61 1009.5
20260903173509 90 177 3.0 10.0 0.00 0.00 0.00 61 1009.7
20260903173009 90 167 3.0 10.0 0.00 0.00 0.00 63 1009.7
20260903172509 90 125 2.0 10.0 0.00 0.00 0.00 64 1009.7
20260903172009 89 172 2.0 6.0 0.00 0.00 0.00 65 1009.7
20260903171510 89 148 3.0 7.0 0.00 0.00 0.00 64 1009.8
20260903171009 88 163 4.0 7.0 0.00 0.00 0.00 66 1009.8
20260903170509 87 161 3.0 7.0 0.00 0.00 0.00 67 1009.9
20260903170010 87 203 2.0 5.0 0.00 0.00 0.00 69 1010.0
20260903165010 86 214 1.0 9.0 0.00 0.00 0.00 71 1010.0
20260903164510 86 175 3.0 9.0 0.00 0.00 0.00 70 1009.9
20260903163509 85 158 2.0 7.0 0.00 0.00 0.00 68 1009.8
20260903163010 85 178 2.0 12.0 0.00 0.00 0.00 69 1009.9
20260903162010 84 134 2.0 12.0 0.00 0.00 0.00 71 1010.0
20260903161510 84 174 2.0 8.0 0.00 0.00 0.00 72 1010.0
20260903161010 83 162 3.0 8.0 0.00 0.00 0.00 72 1010.0
20260903160510 83 139 4.0 9.0 0.00 0.00 0.00 73 1010.0
20260903160010 83 169 2.0 10.0 0.00 0.00 0.00 73 1009.9
20260903154510 82 183 3.0 7.0 0.00 0.00 0.00 73 1010.1
20260903154010 82 162 1.0 7.0 0.00 0.00 0.00 73 1010.1
20260903153510 82 138 3.0 7.0 0.00 0.00 0.00 73 1010.3
20260903153010 82 153 2.0 7.0 0.00 0.00 0.00 73 1010.5
20260903152510 82 129 4.0 7.0 0.00 0.00 0.00 74 1010.5
20260903152010 81 148 2.0 6.0 0.00 0.00 0.00 74 1010.5
20260903151510 81 131 2.0 6.0 0.00 0.00 0.00 74 1010.4
20260903151010 81 127 2.0 3.0 0.00 0.00 0.00 74 1010.6
20260903150010 81 142 0.0 3.0 0.00 0.00 0.00 75 1010.6
20260903145010 80 134 3.0 8.0 0.00 0.00 0.00 75 1010.2
20260903143509 80 130 1.0 6.0 0.00 0.00 0.00 76 1010.1
20260903143009 80 117 1.0 6.0 0.00 0.00 0.00 76 1010.1
20260903142509 80 114 1.0 6.0 0.00 0.00 0.00 76 1010.1
20260903142009 79 115 2.0 5.0 0.00 0.00 0.00 77 1010.1
20260903141509 79 160 2.0 6.0 0.00 0.00 0.00 77 1010.1
20260903141009 79 148 2.0 6.0 0.00 0.00 0.00 77 1010.1
20260903140009 79 151 1.0 5.0 0.00 0.00 0.00 78 1010.0
20260903135509 79 148 2.0 6.0 0.00 0.00 0.00 78 1010.0
20260903134509 79 145 2.0 3.0 0.00 0.00 0.00 79 1009.9
20260903134009 79 118 0.0 3.0 0.00 0.00 0.00 79 1010.0
20260903133509 78 141 1.0 2.0 0.00 0.00 0.00 78 1010.1
20260903133009 78 142 1.0 5.0 0.00 0.00 0.00 78 1010.2
20260903132509 78 129 1.0 5.0 0.00 0.00 0.00 78 1010.1
20260903132009 78 128 1.0 5.0 0.00 0.00 0.00 78 1010.3
20260903131510 78 159 1.0 3.0 0.00 0.00 0.00 77 1010.3
20260903131009 78 122 0.0 3.0 0.00 0.00 0.00 77 1010.4
20260903130010 78 142 1.0 2.0 0.00 0.00 0.00 77 1010.5
20260903125509 78 142 0.0 2.0 0.00 0.00 0.00 76 1010.6
20260903125009 78 142 0.0 2.0 0.00 0.00 0.00 76 1010.6
20260903124510 79 142 1.0 2.0 0.00 0.00 0.00 76 1010.4
20260903123509 79 142 0.0 2.0 0.00 0.00 0.00 76 1010.4
20260903123009 79 142 1.0 2.0 0.00 0.00 0.00 76 1010.4
20260903122509 79 142 1.0 2.0 0.00 0.00 0.00 75 1010.1
20260903122009 79 142 0.0 2.0 0.00 0.00 0.00 75 1010.0
20260903121510 79 142 0.0 2.0 0.00 0.00 0.00 74 1009.9
20260903121010 79 142 0.0 2.0 0.00 0.00 0.00 73 1009.9
20260903120509 79 142 0.0 2.0 0.00 0.00 0.00 73 1009.8
20260903120010 79 142 0.0 3.0 0.00 0.00 0.00 73 1009.7
20260903115509 79 142 1.0 3.0 0.00 0.00 0.00 72 1009.6
20260903114510 80 143 0.0 2.0 0.00 0.00 0.00 72 1009.6
20260903113510 80 143 0.0 2.0 0.00 0.00 0.00 72 1009.5
20260903112010 81 61 0.0 2.0 0.00 0.00 0.00 70 1009.2
20260903111010 81 61 1.0 3.0 0.00 0.00 0.00 70 1009.2
20260903110510 81 76 0.0 3.0 0.00 0.00 0.00 69 1009.2
20260903110010 81 67 0.0 3.0 0.00 0.00 0.00 69 1009.2
20260903105510 81 67 0.0 3.0 0.00 0.00 0.00 68 1009.3
20260903104510 81 184 0.0 2.0 0.00 0.00 0.00 67 1009.5
20260903104010 81 184 1.0 2.0 0.00 0.00 0.00 67 1009.5
20260903103510 81 184 0.0 5.0 0.00 0.00 0.00 67 1009.4
20260903103010 81 185 1.0 5.0 0.00 0.00 0.00 67 1009.3
20260903102510 81 181 2.0 3.0 0.00 0.00 0.00 67 1009.4
20260903102010 81 204 1.0 3.0 0.00 0.00 0.00 68 1009.2
20260903101510 81 190 1.0 5.0 0.00 0.00 0.00 69 1009.2
20260903101009 81 214 1.0 5.0 0.00 0.00 0.00 69 1009.1
20260903100509 81 144 1.0 7.0 0.00 0.00 0.00 69 1009.0
20260903100009 81 135 1.0 7.0 0.00 0.00 0.00 68 1008.9
20260903095509 81 115 2.0 5.0 0.00 0.00 0.00 68 1008.7
20260903095009 81 126 1.0 3.0 0.00 0.00 0.00 67 1008.8
20260903094508 82 126 2.0 5.0 0.00 0.00 0.00 66 1008.8
20260903093509 82 144 3.0 5.0 0.00 0.00 0.00 66 1008.8
20260903092509 82 138 1.0 6.0 0.00 0.00 0.00 65 1008.9
20260903092009 82 123 2.0 5.0 0.00 0.00 0.00 65 1009.1
20260903091510 82 146 1.0 5.0 0.00 0.00 0.00 65 1009.0
20260903090509 83 135 2.0 9.0 0.00 0.00 0.00 64 1009.0
20260903090008 83 145 2.0 9.0 0.00 0.00 0.00 64 1009.0
20260903085509 83 155 2.0 10.0 0.00 0.00 0.00 64 1009.0
20260903085009 83 161 2.0 10.0 0.00 0.00 0.00 64 1009.0
20260903084510 83 156 3.0 10.0 0.00 0.00 0.00 64 1009.0
20260903084009 83 137 2.0 6.0 0.00 0.00 0.00 64 1008.9
20260903083509 83 163 2.0 6.0 0.00 0.00 0.00 63 1009.0
20260903083010 83 171 2.0 7.0 0.00 0.00 0.00 63 1009.0
20260903082009 83 184 2.0 7.0 0.00 0.00 0.00 64 1008.9
20260903081509 83 165 2.0 6.0 0.00 0.00 0.00 64 1009.0
20260903081010 83 160 2.0 5.0 0.00 0.00 0.00 63 1008.9
20260903080509 83 138 1.0 6.0 0.00 0.00 0.00 63 1008.9
20260903075508 83 150 3.0 7.0 0.00 0.00 0.00 63 1009.1
20260903075009 83 171 2.0 10.0 0.00 0.00 0.00 63 1009.1
20260903074510 83 166 2.0 10.0 0.00 0.00 0.00 63 1009.1
20260903074009 83 174 3.0 12.0 0.00 0.00 0.00 63 1009.0
20260903073509 83 187 3.0 12.0 0.00 0.00 0.00 64 1009.1
20260903073010 83 141 2.0 7.0 0.00 0.00 0.00 64 1009.0
20260903072509 83 138 2.0 13.0 0.00 0.00 0.00 64 1009.0
20260903072010 83 133 2.0 13.0 0.00 0.00 0.00 64 1009.0
20260903071513 83 140 2.0 13.0 0.00 0.00 0.00 64 1009.0
20260903071009 83 160 2.0 6.0 0.00 0.00 0.00 64 1009.1
20260903070509 83 156 2.0 12.0 0.00 0.00 0.00 64 1009.0
20260903070010 83 141 2.0 12.0 0.00 0.00 0.00 64 1009.1
20260903065510 83 175 2.0 8.0 0.00 0.00 0.00 65 1009.1
20260903065010 83 179 2.0 8.0 0.00 0.00 0.00 64 1009.1
20260903064510 83 137 2.0 8.0 0.00 0.00 0.00 64 1009.1
20260903064010 83 155 3.0 6.0 0.00 0.00 0.00 64 1009.1
20260903063510 83 158 3.0 6.0 0.00 0.00 0.00 65 1009.1
20260903063010 83 184 2.0 6.0 0.00 0.00 0.00 65 1009.1
20260903061510 83 182 1.0 6.0 0.00 0.00 0.00 65 1009.1
20260903061010 83 151 2.0 7.0 0.00 0.00 0.00 66 1009.1
20260903060510 83 163 1.0 7.0 0.00 0.00 0.00 66 1009.2
20260903060010 83 157 2.0 5.0 0.00 0.00 0.00 66 1009.2
20260903055010 83 142 1.0 3.0 0.00 0.00 0.00 66 1009.2
20260903054510 83 170 1.0 3.0 0.00 0.00 0.00 66 1009.2
20260903054010 83 173 1.0 3.0 0.00 0.00 0.00 66 1009.2
20260903053510 83 149 1.0 5.0 0.00 0.00 0.00 66 1009.2
20260903053009 83 168 1.0 5.0 0.00 0.00 0.00 66 1009.2
20260903052009 83 155 1.0 3.0 0.00 0.00 0.00 66 1009.2
20260903051509 83 172 2.0 3.0 0.00 0.00 0.00 66 1009.2
20260903050509 83 166 2.0 8.0 0.00 0.00 0.00 66 1009.2
20260903050009 83 139 1.0 6.0 0.00 0.00 0.00 66 1009.4
20260903044509 84 164 2.0 7.0 0.00 0.00 0.00 66 1009.4
20260903044009 84 175 1.0 3.0 0.00 0.00 0.00 65 1009.4
20260903043509 84 182 1.0 3.0 0.00 0.00 0.00 65 1009.4
20260903043009 84 187 1.0 3.0 0.00 0.00 0.00 65 1009.4
20260903042009 84 138 2.0 5.0 0.00 0.00 0.00 65 1009.3
20260903041509 84 148 1.0 6.0 0.00 0.00 0.00 65 1009.3
20260903041009 84 189 1.0 6.0 0.00 0.00 0.00 65 1009.3
20260903040509 84 154 1.0 6.0 0.00 0.00 0.00 65 1009.3
20260903040009 85 159 2.0 6.0 0.00 0.00 0.00 64 1009.5
20260903035509 85 162 2.0 6.0 0.00 0.00 0.00 64 1009.4
20260903035009 85 164 1.0 6.0 0.00 0.00 0.00 64 1009.4
20260903034509 85 153 1.0 3.0 0.00 0.00 0.00 64 1009.4
20260903033509 85 183 1.0 7.0 0.00 0.00 0.00 64 1009.4
20260903033009 85 169 2.0 7.0 0.00 0.00 0.00 63 1009.4
20260903032509 86 179 2.0 6.0 0.00 0.00 0.00 63 1009.4
20260903031509 86 177 2.0 10.0 0.00 0.00 0.00 63 1009.4
20260903031009 86 159 2.0 7.0 0.00 0.00 0.00 63 1009.4
20260903030010 86 164 3.0 6.0 0.00 0.00 0.00 63 1009.4
20260903025510 86 165 2.0 6.0 0.00 0.00 0.00 63 1009.4
20260903025009 86 175 3.0 7.0 0.00 0.00 0.00 63 1009.4
20260903024510 87 159 3.0 7.0 0.00 0.00 0.00 62 1009.3
20260903023010 87 188 1.0 7.0 0.00 0.00 0.00 62 1009.1
20260903022509 87 199 3.0 7.0 0.00 0.00 0.00 62 1009.0
20260903022009 88 148 2.0 7.0 0.00 0.00 0.00 61 1008.9
20260903021510 88 181 2.0 7.0 0.00 0.00 0.00 61 1008.9
20260903021009 88 184 2.0 6.0 0.00 0.00 0.00 61 1008.9
20260903020509 89 159 1.0 7.0 0.00 0.00 0.00 62 1008.8
20260903020010 89 146 1.0 7.0 0.00 0.00 0.00 61 1008.9
20260903015510 89 144 1.0 5.0 0.00 0.00 0.00 61 1008.9
20260903015010 89 189 2.0 3.0 0.00 0.00 0.00 61 1008.8
20260903014510 90 165 1.0 3.0 0.00 0.00 0.00 60 1008.8
20260903014010 90 138 2.0 3.0 0.00 0.00 0.00 59 1008.8
20260903013510 90 161 0.0 0.0 0.00 0.00 0.00 59 1008.7
20260903013010 91 123 0.0 3.0 0.00 0.00 0.00 58 1008.6
20260903012010 91 158 1.0 5.0 0.00 0.00 0.00 56 1008.4
20260903011510 92 167 2.0 5.0 0.00 0.00 0.00 56 1008.4
20260903011010 92 160 1.0 3.0 0.00 0.00 0.00 55 1008.4
20260903010510 92 165 1.0 3.0 0.00 0.00 0.00 54 1008.3
20260903010010 93 158 2.0 3.0 0.00 0.00 0.00 54 1008.4
20260903005510 93 152 1.0 3.0 0.00 0.00 0.00 53 1008.5
20260903005010 93 153 1.0 3.0 0.00 0.00 0.00 53 1008.5
20260903003510 94 142 1.0 3.0 0.00 0.00 0.00 51 1008.5
20260903002509 95 178 1.0 5.0 0.00 0.00 0.00 50 1008.4
20260903002009 95 171 1.0 5.0 0.00 0.00 0.00 50 1008.4
20260903001509 95 163 2.0 5.0 0.00 0.00 0.00 50 1008.4
20260903001009 95 188 1.0 3.0 0.00 0.00 0.00 50 1008.4
20260903000509 95 164 1.0 3.0 0.00 0.00 0.00 50 1008.4
20260903000009 95 158 1.0 7.0 0.00 0.00 0.00 50 1008.5
20260902235509 95 202 2.0 7.0 0.00 0.00 0.00 49 1008.6
20260902235009 95 193 3.0 7.0 0.00 0.00 0.00 49 1008.5
20260902234509 95 130 2.0 5.0 0.00 0.00 0.00 49 1008.5
20260902234009 95 205 2.0 5.0 0.00 0.00 0.00 49 1008.6
20260902233509 95 161 2.0 7.0 0.00 0.00 0.00 49 1008.6
20260902233009 95 205 2.0 7.0 0.00 0.00 0.00 49 1008.6
20260902232509 95 139 1.0 6.0 0.00 0.00 0.00 49 1008.5
20260902232009 95 159 3.0 7.0 0.00 0.00 0.00 49 1008.5
20260902231509 95 170 2.0 7.0 0.00 0.00 0.00 49 1008.6
20260902231009 95 148 3.0 7.0 0.00 0.00 0.00 48 1008.5
20260902230509 96 205 3.0 5.0 0.00 0.00 0.00 49 1008.5
20260902225509 96 208 1.0 6.0 0.00 0.00 0.00 49 1008.6
20260902225009 96 208 1.0 7.0 0.00 0.00 0.00 48 1008.6
20260902224509 96 209 3.0 7.0 0.00 0.00 0.00 48 1008.6
20260902224009 96 209 2.0 7.0 0.00 0.00 0.00 48 1008.5
20260902223509 96 206 4.0 8.0 0.00 0.00 0.00 48 1008.6
20260902222509 96 207 4.0 10.0 0.00 0.00 0.00 47 1008.7
20260902222009 96 194 4.0 10.0 0.00 0.00 0.00 47 1008.7
20260902221009 96 148 4.0 10.0 0.00 0.00 0.00 47 1008.7
20260902220511 96 169 2.0 10.0 0.00 0.00 0.00 48 1008.7
20260902220010 97 201 5.0 10.0 0.00 0.00 0.00 47 1008.6
20260902215509 97 183 5.0 7.0 0.00 0.00 0.00 48 1008.6
20260902215009 97 220 2.0 7.0 0.00 0.00 0.00 48 1008.6
20260902214009 97 196 2.0 10.0 0.00 0.00 0.00 48 1008.6
20260902213509 97 213 3.0 9.0 0.00 0.00 0.00 47 1008.6
20260902213010 97 184 3.0 7.0 0.00 0.00 0.00 48 1008.7
20260902212510 97 219 3.0 9.0 0.00 0.00 0.00 47 1008.7
20260902212010 97 218 4.0 9.0 0.00 0.00 0.00 47 1008.7
20260902211010 97 223 3.0 6.0 0.00 0.00 0.00 47 1008.7
20260902210010 97 168 2.0 10.0 0.00 0.00 0.00 48 1008.8
20260902205010 96 218 3.0 6.0 0.00 0.00 0.00 48 1009.0
20260902204510 96 210 1.0 7.0 0.00 0.00 0.00 48 1009.1
20260902203510 96 194 5.0 9.0 0.00 0.00 0.00 46 1009.1
20260902202510 97 207 6.0 10.0 0.00 0.00 0.00 46 1009.1
20260902202010 96 219 5.0 9.0 0.00 0.00 0.00 47 1009.2
20260902201510 96 226 5.0 12.0 0.00 0.00 0.00 47 1009.2
20260902200010 96 201 4.0 9.0 0.00 0.00 0.00 48 1009.2
20260902195510 96 193 5.0 9.0 0.00 0.00 0.00 48 1009.2
20260902194509 95 194 3.0 7.0 0.00 0.00 0.00 48 1009.3
20260902194009 95 221 5.0 12.0 0.00 0.00 0.00 48 1009.5
20260902193509 95 183 3.0 12.0 0.00 0.00 0.00 48 1009.5
20260902193009 95 161 6.0 12.0 0.00 0.00 0.00 48 1009.5
20260902192009 95 157 3.0 10.0 0.00 0.00 0.00 50 1009.5
20260902191509 95 221 4.0 10.0 0.00 0.00 0.00 49 1009.6
20260902191009 95 179 3.0 10.0 0.00 0.00 0.00 49 1009.7
20260902190509 95 217 2.0 7.0 0.00 0.00 0.00 48 1009.8
20260902190009 95 209 2.0 7.0 0.00 0.00 0.00 49 1009.7
20260902185509 95 228 3.0 7.0 0.00 0.00 0.00 47 1009.8
20260902185009 95 204 3.0 7.0 0.00 0.00 0.00 48 1009.8
20260902184509 95 213 2.0 7.0 0.00 0.00 0.00 50 1009.9